When you browse on this site, cookies collect data to enhance your experience and personalize the content and advertising you see.
Visit our Privacy Policy to learn more. By continuing to use the site, you agree to this use of cookies and data.
  • In Czech Republic
  • List of Countries
  • For 7 days
  • Water Temperature
  • Satellite Maps
  • Weather Map
  • Weather Widgets
  • user-avatar
    Login

    Hourly Weather Jewłach

    Today, 25 June, Tuesday

    Time Temperature Precipitation Wind Pressure Humidity
    00:00 +30°C° 0 mm 1 mps 759 mmHg 33%
    01:00 +30°C° 0 mm 1 mps 758 mmHg 34%
    02:00 +29°C° 0 mm 1 mps 758 mmHg 36%
    03:00 +29°C° 0 mm 1 mps 758 mmHg 35%
    04:00 +29°C° 0 mm 1 mps 759 mmHg 38%
    05:00 +30°C° 0 mm 2 mps 759 mmHg 40%
    06:00 +30°C° 0 mm 3 mps 759 mmHg 43%
    07:00 +33°C° 0 mm 3 mps 759 mmHg 39%
    08:00 +35°C° 0 mm 3 mps 759 mmHg 35%
    09:00 +37°C° 0 mm 3 mps 759 mmHg 30%
    10:00 +39°C° 0 mm 3 mps 759 mmHg 25%
    11:00 +40°C° 0 mm 2 mps 758 mmHg 21%
    12:00 +42°C° 0 mm 2 mps 758 mmHg 17%
    13:00 +43°C° 0 mm 3 mps 758 mmHg 15%
    14:00 +44°C° 0 mm 4 mps 758 mmHg 14%
    15:00 +46°C° 0 mm 5 mps 757 mmHg 13%
    16:00 +45°C° 0 mm 5 mps 758 mmHg 14%
    17:00 +43°C° 0 mm 5 mps 758 mmHg 15%
    18:00 +44°C° 0 mm 6 mps 758 mmHg 15%
    19:00 +40°C° 0 mm 5 mps 758 mmHg 19%
    20:00 +37°C° 0 mm 4 mps 759 mmHg 22%
    21:00 +34°C° 0 mm 3 mps 759 mmHg 25%
    22:00 +33°C° 0 mm 3 mps 759 mmHg 27%
    23:00 +31°C° 0 mm 3 mps 759 mmHg 29%

    Tomorrow, 26 June, Wednesday

    Time Temperature Precipitation Wind Pressure Humidity
    00:00 +30°C° 0 mm 2 mps 759 mmHg 31%
    01:00 +30°C° 0 mm 2 mps 759 mmHg 32%
    02:00 +29°C° 0 mm 1 mps 759 mmHg 34%
    03:00 +28°C° 0 mm 1 mps 759 mmHg 36%
    04:00 +29°C° 0 mm 1 mps 759 mmHg 36%
    05:00 +30°C° 0 mm 1 mps 759 mmHg 36%
    06:00 +30°C° 0 mm 1 mps 759 mmHg 36%
    07:00 +32°C° 0 mm 1 mps 759 mmHg 34%
    08:00 +34°C° 0 mm 1 mps 759 mmHg 32%
    09:00 +36°C° 0 mm 1 mps 759 mmHg 30%
    10:00 +38°C° 0 mm 2 mps 759 mmHg 25%
    11:00 +40°C° 0 mm 3 mps 759 mmHg 21%
    12:00 +43°C° 0 mm 3 mps 758 mmHg 17%
    13:00 +43°C° 0 mm 4 mps 758 mmHg 17%
    14:00 +43°C° 0 mm 5 mps 758 mmHg 17%
    15:00 +45°C° 0 mm 6 mps 757 mmHg 16%
    16:00 +44°C° 0 mm 6 mps 757 mmHg 18%
    17:00 +42°C° 0 mm 6 mps 757 mmHg 20%
    18:00 +42°C° 0 mm 6 mps 757 mmHg 21%
    19:00 +40°C° 0 mm 6 mps 758 mmHg 27%
    20:00 +36°C° 0 mm 7 mps 758 mmHg 33%
    21:00 +34°C° 0 mm 8 mps 758 mmHg 39%
    22:00 +33°C° 0 mm 6 mps 758 mmHg 42%
    23:00 +32°C° 0 mm 5 mps 758 mmHg 46%

    Day after tomorrow, 27 June, Thursday

    Time Temperature Precipitation Wind Pressure Humidity
    00:00 +32°C° 0 mm 4 mps 758 mmHg 49%
    01:00 +30°C° 0 mm 4 mps 758 mmHg 51%
    02:00 +29°C° 0 mm 4 mps 758 mmHg 53%
    03:00 +29°C° 0 mm 3 mps 758 mmHg 55%
    04:00 +29°C° 0 mm 4 mps 758 mmHg 54%
    05:00 +29°C° 0 mm 4 mps 758 mmHg 52%
    06:00 +30°C° 0 mm 4 mps 758 mmHg 51%
    07:00 +32°C° 0 mm 5 mps 758 mmHg 48%
    08:00 +33°C° 0 mm 5 mps 758 mmHg 45%
    09:00 +34°C° 0 mm 5 mps 758 mmHg 42%
    10:00 +35°C° 0 mm 6 mps 758 mmHg 39%
    11:00 +36°C° 0 mm 6 mps 757 mmHg 37%
    12:00 +38°C° 0 mm 6 mps 757 mmHg 34%
    13:00 +39°C° 0 mm 6 mps 756 mmHg 33%
    14:00 +39°C° 0 mm 6 mps 756 mmHg 31%
    15:00 +39°C° 0 mm 7 mps 756 mmHg 29%
    16:00 +38°C° 0 mm 7 mps 755 mmHg 28%
    17:00 +38°C° 0 mm 7 mps 755 mmHg 27%
    18:00 +36°C° 0 mm 7 mps 755 mmHg 26%
    19:00 +34°C° 0 mm 7 mps 755 mmHg 29%
    20:00 +33°C° 0 mm 7 mps 756 mmHg 31%
    21:00 +30°C° 0 mm 7 mps 756 mmHg 34%
    22:00 +29°C° 0 mm 6 mps 756 mmHg 37%
    23:00 +28°C° 0 mm 5 mps 755 mmHg 40%

    28 June, Friday

    Time Temperature Precipitation Wind Pressure Humidity
    00:00 +27°C° 0 mm 5 mps 755 mmHg 43%
    01:00 +27°C° 0 mm 4 mps 755 mmHg 44%
    02:00 +26°C° 0 mm 3 mps 755 mmHg 45%
    03:00 +26°C° 0 mm 3 mps 754 mmHg 45%
    04:00 +26°C° 0 mm 2 mps 754 mmHg 45%
    05:00 +26°C° 0 mm 2 mps 754 mmHg 45%
    06:00 +27°C° 0 mm 2 mps 754 mmHg 45%
    07:00 +28°C° 0 mm 2 mps 754 mmHg 40%
    08:00 +30°C° 0 mm 3 mps 753 mmHg 35%
    09:00 +31°C° 0 mm 3 mps 753 mmHg 30%
    10:00 +33°C° 0.1 mm 3 mps 752 mmHg 29%
    11:00 +34°C° 0.1 mm 3 mps 752 mmHg 28%
    12:00 +35°C° 0.1 mm 3 mps 751 mmHg 27%
    13:00 +36°C° 0.1 mm 2 mps 751 mmHg 27%
    14:00 +36°C° 0.1 mm 2 mps 750 mmHg 26%
    15:00 +37°C° 0.1 mm 2 mps 750 mmHg 26%
    16:00 +36°C° 0.1 mm 2 mps 750 mmHg 27%
    17:00 +36°C° 0.1 mm 2 mps 749 mmHg 29%
    18:00 +35°C° 0.1 mm 3 mps 749 mmHg 30%
    19:00 +34°C° 0 mm 2 mps 750 mmHg 34%
    20:00 +32°C° 0 mm 2 mps 750 mmHg 38%
    21:00 +30°C° 0 mm 1 mps 751 mmHg 41%
    22:00 +30°C° 0 mm 1 mps 751 mmHg 42%
    23:00 +30°C° 0 mm 1 mps 751 mmHg 42%

    29 June, Saturday

    Time Temperature Precipitation Wind Pressure Humidity
    00:00 +29°C° 0 mm 1 mps 750 mmHg 43%
    01:00 +29°C° 0 mm 1 mps 750 mmHg 45%
    02:00 +28°C° 0 mm 1 mps 750 mmHg 47%
    03:00 +28°C° 0 mm 1 mps 750 mmHg 49%
    04:00 +28°C° 0 mm 2 mps 750 mmHg 49%
    05:00 +29°C° 0 mm 2 mps 750 mmHg 48%
    06:00 +29°C° 0 mm 3 mps 750 mmHg 48%
    07:00 +32°C° 0 mm 4 mps 750 mmHg 44%
    08:00 +34°C° 0 mm 4 mps 750 mmHg 40%
    09:00 +35°C° 0 mm 5 mps 750 mmHg 36%
    10:00 +36°C° 0 mm 4 mps 750 mmHg 34%
    11:00 +37°C° 0 mm 4 mps 749 mmHg 31%
    12:00 +39°C° 0 mm 3 mps 749 mmHg 28%
    13:00 +39°C° 0 mm 3 mps 749 mmHg 27%
    14:00 +40°C° 0 mm 3 mps 749 mmHg 25%
    15:00 +40°C° 0 mm 3 mps 748 mmHg 24%
    16:00 +41°C° 0 mm 4 mps 748 mmHg 26%
    17:00 +40°C° 0 mm 5 mps 749 mmHg 27%
    18:00 +40°C° 0 mm 6 mps 749 mmHg 28%
    19:00 +38°C° 0 mm 6 mps 749 mmHg 32%
    20:00 +35°C° 0 mm 6 mps 750 mmHg 36%
    21:00 +33°C° 0 mm 5 mps 751 mmHg 40%
    22:00 +30°C° 0.1 mm 6 mps 751 mmHg 44%
    23:00 +29°C° 0.1 mm 7 mps 752 mmHg 47%

    30 June, Sunday

    Time Temperature Precipitation Wind Pressure Humidity
    00:00 +28°C° 0.1 mm 8 mps 752 mmHg 51%
    01:00 +28°C° 0.2 mm 7 mps 752 mmHg 55%
    02:00 +27°C° 0.2 mm 7 mps 752 mmHg 59%
    03:00 +26°C° 0.2 mm 6 mps 752 mmHg 63%
    04:00 +26°C° 0.2 mm 5 mps 752 mmHg 63%
    05:00 +26°C° 0.2 mm 5 mps 752 mmHg 62%
    06:00 +26°C° 0.2 mm 5 mps 752 mmHg 61%
    07:00 +27°C° 0.3 mm 5 mps 752 mmHg 58%
    08:00 +28°C° 0.3 mm 5 mps 752 mmHg 56%
    09:00 +29°C° 0.3 mm 5 mps 752 mmHg 53%
    10:00 +30°C° 0 mm 5 mps 752 mmHg 51%
    11:00 +30°C° 0 mm 5 mps 752 mmHg 48%
    12:00 +32°C° 0 mm 6 mps 752 mmHg 45%
    13:00 +30°C° 0 mm 7 mps 752 mmHg 49%
    14:00 +29°C° 0 mm 8 mps 752 mmHg 53%
    15:00 +28°C° 0 mm 10 mps 752 mmHg 57%
    16:00 +26°C° 0.1 mm 10 mps 752 mmHg 60%
    17:00 +24°C° 0.1 mm 10 mps 752 mmHg 64%
    18:00 +23°C° 0.1 mm 10 mps 752 mmHg 67%
    19:00 +22°C° 0.9 mm 9 mps 753 mmHg 72%
    20:00 +21°C° 0.9 mm 9 mps 754 mmHg 77%
    21:00 +19°C° 0.9 mm 9 mps 754 mmHg 81%
    22:00 +19°C° 1.2 mm 9 mps 754 mmHg 81%
    23:00 +19°C° 1.2 mm 10 mps 754 mmHg 81%
    Show more